Regional Weather Roundup
Issued by NWS

Home | Current Version | Previous Version | Text Only | Print | Product List | Glossary Off
Versions: 1 2 3 4 5 6 7 8 9 10 11 12 13 14 15 16 17 18 19 20 21 22 23 24 25 26 27 28 29 30 31 32 33 34 35 36 37 38 39 40 41 42 43 44 45 46 47 48 49 50

000
ASUS43 KDMX 202001
RWRIA

WEATHER ROUNDUP FOR IOWA
NATIONAL WEATHER SERVICE DES MOINES IA
300 PM CDT SUN MAY 20 2018

NOTE: "FAIR" INDICATES FEW OR NO CLOUDS BELOW 12,000 FEET WITH NO
SIGNIFICANT WEATHER AND/OR OBSTRUCTIONS TO VISIBILITY.

* - THESE STATIONS ARE NOT NWS STATIONS...THUS NOT UNDER NWS
QUALITY CONTROL.  THEY ALSO DO NOT REPORT WEATHER SUCH
AS PRECIPITATION OR FOG.

IAZ001>003-012>014-020>022-031>034-043>046-202100-
   NORTHWEST IOWA

CITY           SKY/WX    TMP DP  RH WIND       PRES   REMARKS
CARROLL *      CLOUDY   N/A N/A N/A NE9       30.12F
CHEROKEE *     CLOUDY    58  52  80 NE6       30.15F
DENISON *      MOSUNNY   55  55 100 NE8       30.14F
LE MARS *      CLOUDY    55  48  76 NE9       30.16F
ORANGE CITY *  CLOUDY    57  50  77 NE3       30.16F
SHELDON *      CLOUDY    59  50  72 E12       30.14F
SIOUX CITY     LGT RAIN  55  50  83 NE7       30.15F
SPENCER        CLOUDY    62  50  64 E7        30.15F
STORM LAKE *   CLOUDY    57  52  82 NE14      30.14F
$$

IAZ055>058-069>071-079>083-090>094-202100-
   SOUTHWEST IOWA

CITY           SKY/WX    TMP DP  RH WIND       PRES   REMARKS
ATLANTIC *     CLOUDY    68  59  73 NE9G18    30.07F
AUDUBON *      CLOUDY    64  57  77 N12       30.11F
CLARINDA *     CLOUDY    70  61  73 E6        30.09R
COUNCIL BLFS * CLOUDY    57  57 100 N13       30.09F
CRESTON *      CLOUDY    66  59  77 E12       30.09S
HARLAN  *      CLOUDY    59  57  94 N13       30.13F
LAMONI         PTSUNNY   68  62  81 NE6       30.07F
RED OAK *      CLOUDY    68  59  73 NE12      30.06F
SHENANDOAH *   CLOUDY    70  59  68 N8        30.07S
$$

IAZ047>049-059>061-072>074-084-202100-
   CENTRAL IOWA

CITY           SKY/WX    TMP DP  RH WIND       PRES   REMARKS
AMES           CLOUDY    60  56  86 NE10      30.11F
ANKENY *       CLOUDY    63  59  88 NE9       30.11F
BOONE *        CLOUDY    61  55  82 E13       30.11S
CHARITON *     CLOUDY    68  63  83 VRB5G12   30.08R
DES MOINES     CLOUDY    67  58  72 NE8       30.08F
GRINNELL*      CLOUDY    64  58  78 NE13      30.11F
KNOXVILLE *    CLOUDY    70  61  73 NE9       30.06F
MARSHALLTOWN   CLOUDY    61  58  90 NE14      30.11F
NEWTON *       CLOUDY    64  61  88 NE10      30.10F
PELLA *        CLOUDY    69  61  75 NE3       30.09F
PERRY *        CLOUDY    64  57  77 E9        30.10F
$$

IAZ004>006-015-016-023>025-035-036-202100-
   NORTH CENTRAL IOWA

CITY           SKY/WX    TMP DP  RH WIND       PRES   REMARKS
ALGONA *       CLOUDY    59  52  77 E12       30.16F
CLARION *      CLOUDY    57  52  82 E13       30.15F
ESTHERVILLE    CLOUDY    59  51  75 SE14      30.15F
FORT DODGE *   CLOUDY    58  54  86 NE9       30.14F
MASON CITY     CLOUDY    56  50  80 E14       30.18F
FOREST CITY *  CLOUDY    55  52  88 E8        30.17F
IOWA FALLS *   CLOUDY    60  56  87 E9        30.15F
$$

IAZ007>011-017>019-026>030-037>042-050>054-066-202100-
   NORTHEAST IOWA

CITY           SKY/WX    TMP DP  RH WIND       PRES   REMARKS
CEDAR RAPIDS   CLOUDY    57  54  89 E15       30.12F
CHARLES CITY * CLOUDY    55  52  88 E13       30.18F
CLINTON *        N/A     59  54  83 E14       30.15F
DECORAH *      CLOUDY    55  50  82 NE8       30.17F
DUBUQUE        CLOUDY    54  50  86 E9        30.17F
MONTICELLO *   PTSUNNY   55  54  94 E8        30.16S
OELWEIN *      CLOUDY    57  54  88 E14       30.16F
WATERLOO       CLOUDY    58  54  86 E13       30.14F
$$

IAZ064-065-067-068-078-202100-
   EAST CENTRAL IOWA

CITY           SKY/WX    TMP DP  RH WIND       PRES   REMARKS
DAVENPORT      FAIR      65  53  65 E15G22    30.14F
IOWA CITY      CLOUDY    62  54  74 NE14G21   30.12F
MUSCATINE *    FAIR      70  57  64 NE18      30.07F
QUAD CITIES    PTSUNNY   69  56  62 E12       30.11F
$$

IAZ062-063-075>077-085>089-095>099-202100-
   SOUTHEAST IOWA

CITY           SKY/WX    TMP DP  RH WIND       PRES   REMARKS
BURLINGTON     CLOUDY    71  65  81 NE8       30.06F
FAIRFIELD *    PTSUNNY   72  64  78 N16       30.04F
FORT MADISON * CLOUDY    73  66  78 N3        30.08R
KEOKUK *       CLOUDY    72  66  83 CALM      30.06R
OSKALOOSA *    PTSUNNY   67  63  85 NE12      30.07S HAZE
CENTERVILLE *    N/A     72  70  94 CALM      30.08F
OTTUMWA        CLOUDY    74  64  71 NE12      30.05F
WASHINGTON *   CLOUDY    72  63  73 NE15G22   30.07F
$$

ABBREVIATIONS USED IN REMARKS
   TC - TEMPERATURES IN CELSIUS
  WCI - WIND CHILL INDEX
   HX - HEAT INDEX
  VSB - VISIBILITY
$$





USA.gov is the U.S. government's official web portal to all federal, state and local government web resources and services.